User: anonymous   Login
Location: UBC Liquid-Mirror Observatory
(49.2876°N, 122.5728°W)
Time: 14:02:00
(UTC-07:00)
Language:

Cosmos 1743 Rocket - Orbit

View from above orbital plane
View from above orbital plane
View from above satellite
View from above satellite

Ground track
Ground track

The orbit data is extracted from the following two-line orbital elements,

1 16720U 86034B   18173.39087797  .00000054  00000-0  36798-5 0  9994
2 16720  82.5549 256.3369 0019202 323.8828  89.2074 14.83336054734149
Epoch (UTC): 22 June 2018 09:22:51
Eccentricity: 0.0019202
inclination: 82.5549°
perigee height: 605 km
apogee height: 632 km
right ascension of ascending node: 256.3369°
argument of perigee: 323.8828°
revolutions per day: 14.83336054
mean anomaly at epoch: 89.2074°
orbit number at epoch: 73414

The dashed part of the orbit path shows where the satellite is in the earth's shadow,  

DLR